Location: B?lite?ti
(46.2833°N, 22.7333°E)
Time: 23:42:22
(UTC+00:00)

H-2A R/B - Visible Passes

Search period start: 07 May 2021 00:00
Search period end: 17 May 2021 00:00
Orbit: 578 x 654 km, 98.5° (Epoch: 07 May)

Date Brightness Start Highest point End Pass type
(mag) Time Alt. Az. Time Alt. Az. Time Alt. Az.
07 May 5.9 01:50:02 10° ENE 01:51:17 11° NE 01:52:32 10° NE visible
07 May 6.1 18:20:08 10° NW 18:21:40 12° NW 18:23:12 10° WNW visible
08 May 5.5 02:04:32 10° E 02:07:05 15° ENE 02:09:39 10° NNE visible
09 May 5.2 02:19:38 10° ESE 02:22:54 21° ENE 02:26:13 10° NNE visible
13 May 6.0 01:50:20 10° ENE 01:51:26 11° NE 01:52:31 10° NE visible
14 May 5.5 02:04:44 10° E 02:07:13 15° ENE 02:09:43 10° NNE visible
15 May 5.3 02:19:48 10° ESE 02:23:02 20° ENE 02:26:19 10° NNE visible
